Time,TemperatureF,DewpointF,PressureIn,WindDirection,WindDirectionDegrees,WindSpeedMPH,WindSpeedGustMPH,Humidity,HourlyPrecipIn,Conditions,Clouds,dailyrainin,SoftwareType,DateUTC
2015-08-02 00:01:00,79.8,76.0,29.93,WSW,253,5.0,11.0,89,0.00,,,0.00,weatherlink.com 1.10,2015-08-02 04:01:00,
2015-08-02 00:17:00,79.6,76.0,29.93,WSW,250,4.0,7.0,89,0.00,,,0.00,weatherlink.com 1.10,2015-08-02 04:17:00,
2015-08-02 00:32:00,79.5,76.0,29.93,WSW,247,7.0,8.0,88,0.00,,,0.00,weatherlink.com 1.10,2015-08-02 04:32:00,
2015-08-02 00:47:00,79.4,76.0,29.93,West,267,4.0,9.0,88,0.00,,,0.00,weatherlink.com 1.10,2015-08-02 04:47:00,
2015-08-02 01:17:00,79.2,76.0,29.92,West,264,4.0,9.0,89,0.00,,,0.00,weatherlink.com 1.10,2015-08-02 05:17:00,
2015-08-02 01:32:00,79.1,76.0,29.92,WSW,252,3.0,8.0,89,0.00,,,0.00,weatherlink.com 1.10,2015-08-02 05:32:00,
2015-08-02 01:47:00,79.1,76.0,29.92,West,266,5.0,8.0,89,0.00,,,0.00,weatherlink.com 1.10,2015-08-02 05:47:00,
2015-08-02 02:02:00,79.0,76.0,29.92,WSW,249,4.0,7.0,90,0.00,,,0.00,weatherlink.com 1.10,2015-08-02 06:02:00,
2015-08-02 02:17:00,79.0,76.0,29.91,SW,223,2.0,6.0,90,0.00,,,0.00,weatherlink.com 1.10,2015-08-02 06:17:00,
2015-08-02 02:32:00,79.0,76.0,29.91,WSW,256,2.0,6.0,91,0.00,,,0.00,weatherlink.com 1.10,2015-08-02 06:32:00,
2015-08-02 02:47:00,79.0,76.0,29.91,West,278,0.0,4.0,91,0.00,,,0.00,weatherlink.com 1.10,2015-08-02 06:47:00,
2015-08-02 03:02:00,78.9,76.0,29.91,West,276,0.0,4.0,91,0.00,,,0.00,weatherlink.com 1.10,2015-08-02 07:02:00,
2015-08-02 03:17:00,78.3,76.0,29.91,WNW,295,1.0,4.0,91,0.00,,,0.00,weatherlink.com 1.10,2015-08-02 07:17:00,
2015-08-02 03:32:00,77.5,75.0,29.91,West,264,1.0,6.0,93,0.00,,,0.00,weatherlink.com 1.10,2015-08-02 07:32:00,
2015-08-02 03:47:00,77.2,75.0,29.92,WNW,292,1.0,6.0,93,0.00,,,0.00,weatherlink.com 1.10,2015-08-02 07:47:00,
2015-08-02 04:02:00,76.8,75.0,29.91,WNW,295,4.0,5.0,93,0.00,,,0.00,weatherlink.com 1.10,2015-08-02 08:02:00,
2015-08-02 04:17:00,76.6,75.0,29.91,WNW,295,2.0,6.0,94,0.00,,,0.00,weatherlink.com 1.10,2015-08-02 08:17:00,
2015-08-02 04:32:00,76.5,75.0,29.91,WNW,295,1.0,6.0,94,0.00,,,0.00,weatherlink.com 1.10,2015-08-02 08:32:00,
2015-08-02 04:47:00,76.4,75.0,29.92,WNW,287,2.0,5.0,94,0.00,,,0.00,weatherlink.com 1.10,2015-08-02 08:47:00,
2015-08-02 05:02:00,76.4,75.0,29.92,WNW,285,1.0,4.0,94,0.00,,,0.00,weatherlink.com 1.10,2015-08-02 09:02:00,
2015-08-02 05:17:00,76.3,74.0,29.91,West,278,1.0,4.0,93,0.00,,,0.00,weatherlink.com 1.10,2015-08-02 09:17:00,
2015-08-02 05:32:00,76.3,75.0,29.92,WNW,290,1.0,5.0,94,0.00,,,0.00,weatherlink.com 1.10,2015-08-02 09:32:00,
2015-08-02 05:47:00,76.3,75.0,29.92,WNW,292,1.0,5.0,94,0.00,,,0.00,weatherlink.com 1.10,2015-08-02 09:47:00,
2015-08-02 06:02:00,76.3,74.0,29.92,West,278,0.0,4.0,93,0.00,,,0.00,weatherlink.com 1.10,2015-08-02 10:02:00,
2015-08-02 06:17:00,75.9,74.0,29.92,WNW,294,2.0,4.0,93,0.00,,,0.00,weatherlink.com 1.10,2015-08-02 10:17:00,
2015-08-02 06:32:00,75.8,74.0,29.93,WNW,291,3.0,3.0,94,0.00,,,0.00,weatherlink.com 1.10,2015-08-02 10:32:00,
2015-08-02 06:47:00,76.0,74.0,29.93,West,275,1.0,4.0,94,0.00,,,0.00,weatherlink.com 1.10,2015-08-02 10:47:00,
2015-08-02 07:02:00,76.6,75.0,29.93,WNW,285,1.0,3.0,93,0.00,,,0.00,weatherlink.com 1.10,2015-08-02 11:02:00,
2015-08-02 07:17:00,77.2,75.0,29.93,WNW,301,2.0,5.0,92,0.00,,,0.00,weatherlink.com 1.10,2015-08-02 11:17:00,
2015-08-02 07:32:00,77.6,75.0,29.93,West,279,1.0,5.0,92,0.00,,,0.00,weatherlink.com 1.10,2015-08-02 11:32:00,
2015-08-02 07:47:00,77.9,75.0,29.93,NW,309,2.0,6.0,90,0.00,,,0.00,weatherlink.com 1.10,2015-08-02 11:47:00,
2015-08-02 08:02:00,78.4,75.0,29.93,WNW,302,2.0,10.0,89,0.00,,,0.00,weatherlink.com 1.10,2015-08-02 12:02:00,
2015-08-02 08:17:00,79.3,76.0,29.94,WSW,248,3.0,10.0,88,0.00,,,0.00,weatherlink.com 1.10,2015-08-02 12:17:00,
2015-08-02 08:32:00,79.8,76.0,29.94,NNW,333,4.0,6.0,88,0.00,,,0.00,weatherlink.com 1.10,2015-08-02 12:32:00,
2015-08-02 08:47:00,80.7,77.0,29.95,NW,318,1.0,7.0,87,0.00,,,0.00,weatherlink.com 1.10,2015-08-02 12:47:00,
2015-08-02 09:02:00,81.7,77.0,29.95,ENE,62,0.0,3.0,86,0.00,,,0.00,weatherlink.com 1.10,2015-08-02 13:02:00,
2015-08-02 09:17:00,82.3,77.0,29.95,North,5,1.0,4.0,84,0.00,,,0.00,weatherlink.com 1.10,2015-08-02 13:17:00,
2015-08-02 09:32:00,82.8,78.0,29.95,ENE,78,4.0,5.0,84,0.00,,,0.00,weatherlink.com 1.10,2015-08-02 13:32:00,
2015-08-02 09:49:00,82.3,77.0,29.95,East,87,3.0,5.0,85,0.00,,,0.00,weatherlink.com 1.10,2015-08-02 13:49:00,
2015-08-02 10:02:00,82.3,78.0,29.95,ENE,67,5.0,8.0,86,0.00,,,0.00,weatherlink.com 1.10,2015-08-02 14:02:00,
2015-08-02 10:17:00,83.0,79.0,29.96,SE,127,5.0,6.0,86,0.00,,,0.00,weatherlink.com 1.10,2015-08-02 14:17:00,
2015-08-02 10:32:00,83.7,80.0,29.97,ESE,115,3.0,6.0,87,0.00,,,0.00,weatherlink.com 1.10,2015-08-02 14:32:00,
2015-08-02 10:48:00,85.2,80.0,29.97,SSE,167,4.0,6.0,83,0.00,,,0.00,weatherlink.com 1.10,2015-08-02 14:48:00,
2015-08-02 11:03:00,86.8,81.0,29.96,SE,129,1.0,5.0,82,0.00,,,0.00,weatherlink.com 1.10,2015-08-02 15:03:00,
2015-08-02 11:18:00,86.5,80.0,29.97,South,174,5.0,6.0,81,0.00,,,0.00,weatherlink.com 1.10,2015-08-02 15:18:00,
2015-08-02 11:33:00,85.5,79.0,29.96,SE,136,4.0,7.0,80,0.00,,,0.00,weatherlink.com 1.10,2015-08-02 15:33:00,
2015-08-02 11:48:00,85.6,79.0,29.96,South,188,5.0,8.0,81,0.00,,,0.00,weatherlink.com 1.10,2015-08-02 15:48:00,
2015-08-02 12:03:00,86.2,79.0,29.96,SSW,198,6.0,8.0,80,0.00,,,0.00,weatherlink.com 1.10,2015-08-02 16:03:00,
2015-08-02 12:18:00,85.5,79.0,29.96,SSW,207,7.0,9.0,80,0.00,,,0.00,weatherlink.com 1.10,2015-08-02 16:18:00,
2015-08-02 12:33:00,85.0,79.0,29.96,SW,236,6.0,8.0,82,0.00,,,0.00,weatherlink.com 1.10,2015-08-02 16:33:00,
2015-08-02 12:48:00,83.9,78.0,29.96,SW,221,6.0,9.0,82,0.00,,,0.00,weatherlink.com 1.10,2015-08-02 16:48:00,
2015-08-02 13:03:00,84.4,78.0,29.96,South,178,3.0,8.0,82,0.00,,,0.00,weatherlink.com 1.10,2015-08-02 17:03:00,
2015-08-02 13:18:00,84.7,78.0,29.96,SSE,156,4.0,7.0,81,0.00,,,0.00,weatherlink.com 1.10,2015-08-02 17:18:00,
2015-08-02 13:34:00,84.2,78.0,29.97,South,184,5.0,8.0,82,0.00,,,0.00,weatherlink.com 1.10,2015-08-02 17:34:00,
2015-08-02 13:48:00,83.7,79.0,29.97,SSW,212,6.0,12.0,85,0.00,,,0.00,weatherlink.com 1.10,2015-08-02 17:48:00,
2015-08-02 14:03:00,83.4,78.0,29.97,SSW,207,6.0,12.0,84,0.00,,,0.00,weatherlink.com 1.10,2015-08-02 18:03:00,
2015-08-02 14:18:00,83.6,79.0,29.97,South,174,8.0,13.0,86,0.00,,,0.00,weatherlink.com 1.10,2015-08-02 18:18:00,
2015-08-02 14:33:00,83.8,79.0,29.97,SW,230,9.0,14.0,86,0.00,,,0.00,weatherlink.com 1.10,2015-08-02 18:33:00,
2015-08-02 14:48:00,83.9,78.0,29.97,SSW,199,13.0,14.0,83,0.00,,,0.00,weatherlink.com 1.10,2015-08-02 18:48:00,
2015-08-02 15:03:00,83.9,79.0,29.97,SW,214,11.0,16.0,84,0.00,,,0.00,weatherlink.com 1.10,2015-08-02 19:03:00,
2015-08-02 15:18:00,84.5,79.0,29.96,South,181,10.0,18.0,84,0.00,,,0.00,weatherlink.com 1.10,2015-08-02 19:18:00,
2015-08-02 15:33:00,84.6,79.0,29.96,SSW,212,17.0,18.0,82,0.00,,,0.00,weatherlink.com 1.10,2015-08-02 19:33:00,
2015-08-02 15:48:00,84.8,78.0,29.95,SW,215,12.0,18.0,81,0.00,,,0.00,weatherlink.com 1.10,2015-08-02 19:48:00,
2015-08-02 16:03:00,84.8,78.0,29.96,South,169,14.0,18.0,81,0.00,,,0.00,weatherlink.com 1.10,2015-08-02 20:03:00,
2015-08-02 16:18:00,84.8,78.0,29.96,SW,216,14.0,20.0,81,0.00,,,0.00,weatherlink.com 1.10,2015-08-02 20:18:00,
2015-08-02 16:33:00,85.0,80.0,29.96,SW,226,15.0,18.0,84,0.00,,,0.00,weatherlink.com 1.10,2015-08-02 20:33:00,
2015-08-02 16:48:00,84.7,79.0,29.96,South,182,15.0,22.0,83,0.00,,,0.00,weatherlink.com 1.10,2015-08-02 20:48:00,
2015-08-02 17:03:00,84.4,80.0,29.96,SSW,203,17.0,22.0,85,0.00,,,0.00,weatherlink.com 1.10,2015-08-02 21:03:00,
2015-08-02 17:19:00,84.3,79.0,29.96,SW,214,17.0,20.0,85,0.00,,,0.00,weatherlink.com 1.10,2015-08-02 21:19:00,
2015-08-02 17:33:00,84.5,79.0,29.95,SSW,205,10.0,21.0,83,0.00,,,0.00,weatherlink.com 1.10,2015-08-02 21:33:00,
2015-08-02 17:48:00,84.5,79.0,29.95,WSW,242,15.0,22.0,83,0.00,,,0.00,weatherlink.com 1.10,2015-08-02 21:48:00,
2015-08-02 18:03:00,84.6,78.0,29.95,WSW,240,18.0,22.0,81,0.00,,,0.00,weatherlink.com 1.10,2015-08-02 22:03:00,
2015-08-02 18:18:00,84.2,78.0,29.95,WSW,253,15.0,21.0,82,0.00,,,0.00,weatherlink.com 1.10,2015-08-02 22:18:00,
2015-08-02 18:33:00,83.4,78.0,29.95,WSW,240,6.0,19.0,83,0.00,,,0.00,weatherlink.com 1.10,2015-08-02 22:33:00,
2015-08-02 18:48:00,82.7,77.0,29.96,WSW,254,13.0,23.0,83,0.00,,,0.00,weatherlink.com 1.10,2015-08-02 22:48:00,
2015-08-02 19:03:00,82.4,77.0,29.96,WSW,251,9.0,20.0,83,0.00,,,0.00,weatherlink.com 1.10,2015-08-02 23:03:00,
2015-08-02 19:18:00,82.2,76.0,29.96,WSW,243,14.0,22.0,80,0.00,,,0.00,weatherlink.com 1.10,2015-08-02 23:18:00,
2015-08-02 19:33:00,81.9,76.0,29.96,WSW,243,10.0,19.0,82,0.00,,,0.00,weatherlink.com 1.10,2015-08-02 23:33:00,
2015-08-02 19:48:00,81.3,75.0,29.96,SW,233,11.0,19.0,82,0.00,,,0.00,weatherlink.com 1.10,2015-08-02 23:48:00,
2015-08-02 20:03:00,80.8,75.0,29.95,WSW,245,9.0,17.0,82,0.00,,,0.00,weatherlink.com 1.10,2015-08-03 00:03:00,
2015-08-02 20:18:00,80.6,75.0,29.95,SW,236,7.0,16.0,83,0.00,,,0.00,weatherlink.com 1.10,2015-08-03 00:18:00,
2015-08-02 20:33:00,80.2,75.0,29.95,SW,223,11.0,16.0,83,0.00,,,0.00,weatherlink.com 1.10,2015-08-03 00:33:00,
2015-08-02 20:48:00,80.3,75.0,29.95,WSW,237,11.0,19.0,83,0.00,,,0.00,weatherlink.com 1.10,2015-08-03 00:48:00,
2015-08-02 21:03:00,80.1,75.0,29.96,SW,219,9.0,17.0,83,0.00,,,0.00,weatherlink.com 1.10,2015-08-03 01:03:00,
2015-08-02 21:18:00,80.2,75.0,29.96,WSW,250,11.0,15.0,84,0.00,,,0.00,weatherlink.com 1.10,2015-08-03 01:18:00,
2015-08-02 21:33:00,80.1,75.0,29.96,WSW,252,8.0,18.0,84,0.00,,,0.00,weatherlink.com 1.10,2015-08-03 01:33:00,